Regional Weather Roundup
Issued by NWS

Home | Current Version | Previous Version | Graphics & Text | Print | Product List | Glossary On
Versions: 1 2 3 4 5 6 7 8 9 10 11 12 13 14 15 16 17 18 19 20 21 22 23 24 25 26 27 28 29 30 31 32 33 34 35 36 37 38 39 40 41 42 43 44 45 46 47 48 49 50
000
ASUS43 KDMX 312008
RWRIA

WEATHER ROUNDUP FOR IOWA
NATIONAL WEATHER SERVICE DES MOINES IA
300 PM CDT TUE MAY 31 2016

NOTE: "FAIR" INDICATES FEW OR NO CLOUDS BELOW 12,000 FEET WITH NO
SIGNIFICANT WEATHER AND/OR OBSTRUCTIONS TO VISIBILITY.

* - THESE STATIONS ARE NOT NWS STATIONS...THUS NOT UNDER NWS
QUALITY CONTROL.  THEY ALSO DO NOT REPORT WEATHER SUCH
AS PRECIPITATION OR FOG.

IAZ001>003-012>014-020>022-031>034-043>046-312100-
   NORTHWEST IOWA

CITY           SKY/WX    TMP DP  RH WIND       PRES   REMARKS
CARROLL *      CLOUDY    73  59  60 NW16      29.90F
CHEROKEE *     PTSUNNY   72  55  56 NW8       29.92F
DENISON *      MOSUNNY   70  61  73 NW9       29.90F
LE MARS *      SUNNY     72  54  53 VRB7G16   29.93F
ORANGE CITY *  SUNNY     72  52  49 NW10      29.92F
SHELDON *      SUNNY     70  52  52 W12       29.90F
SIOUX CITY     SUNNY     75  51  43 N7G18     29.92F
SPENCER        PTSUNNY   70  54  56 W13       29.91F
STORM LAKE *     N/A     70  57  64 W14       29.92F
$$

IAZ055>058-069>071-079>083-090>094-312100-
   SOUTHWEST IOWA

CITY           SKY/WX    TMP DP  RH WIND       PRES   REMARKS
ATLANTIC *     MOSUNNY   73  63  68 NW8       29.91F
AUDUBON *        N/A     73  64  73 NW7       29.92F
CLARINDA *       N/A     77  66  69 MISG      29.91F
COUNCIL BLFS * PTSUNNY   72  61  68 NW12G17   29.93S
CRESTON *      PTSUNNY   73  63  68 S14       29.91S
HARLAN  *      CLOUDY    72  61  68 NW14G20   29.95F
LAMONI         CLOUDY    73  64  73 SW9       29.91S
RED OAK *      SUNNY     73  63  68 NW7G14    29.92S
SHENANDOAH *   PTSUNNY   75  64  69 NW6G15    29.92S
$$

IAZ047>049-059>061-072>074-084-312100-
   CENTRAL IOWA

CITY           SKY/WX    TMP DP  RH WIND       PRES   REMARKS
AMES           LGT RAIN  67  64  90 W13G23    29.89R
ANKENY *       MOSUNNY   79  63  57 S13G18    29.86F HX  80
BOONE *        LGT RAIN  64  64 100 N7        29.90S
CHARITON *     MOSUNNY   77  61  57 S15       29.90F
DES MOINES     CLOUDY    81  62  52 S13G21    29.86F HX  82
GRINNELL*      CLOUDY    77  57  50 S16G23    29.89F
KNOXVILLE *    MOSUNNY   77  59  53 S17       29.88F
MARSHALLTOWN   CLOUDY    79  60  52 S17       29.86F HX  80
NEWTON *       CLOUDY    79  61  53 SW17G24   29.87F HX  80
PERRY *        PTSUNNY   70  66  88 N12       29.90S
$$

IAZ004>006-015-016-023>025-035-036-312100-
   NORTH CENTRAL IOWA

CITY           SKY/WX    TMP DP  RH WIND       PRES   REMARKS
ALGONA *       PTSUNNY   66  61  82 NW12      29.91F
CLARION *      PTSUNNY   70  64  83 W13       29.91S
ESTHERVILLE    CLOUDY    69  58  67 W15       29.90F
FORT DODGE *   CLOUDY    66  57  72 NW10G16   29.92S
MASON CITY     LGT RAIN  68  66  93 NW7       29.90F
FOREST CITY *  PTSUNNY   68  61  77 W12       29.89F
WEBSTER CITY * RAIN      68  66  94 N7        29.89S
IOWA FALLS *   HVY RAIN  68  63  83 NW18      29.90R
$$

IAZ007>011-017>019-026>030-037>042-050>054-066-312100-
   NORTHEAST IOWA

CITY           SKY/WX    TMP DP  RH WIND       PRES   REMARKS
CEDAR RAPIDS   CLOUDY    76  63  64 S10       29.90F
CHARLES CITY * CLOUDY    66  64  94 NW13G26   29.88R
CLINTON *      CLOUDY    70  63  78 E13       29.95F
DECORAH *      PTSUNNY   75  61  60 S16G26    29.86F
DUBUQUE        CLOUDY    70  63  78 SE13      29.94F
MONTICELLO *   PTSUNNY   75  64  69 SE16      29.91F
OELWEIN *      PTSUNNY   77  63  61 S15G22    29.88F
WATERLOO       CLOUDY    80  59  48 S15       29.85F HX  81
$$

IAZ064-065-067-068-078-312100-
   EAST CENTRAL IOWA

CITY           SKY/WX    TMP DP  RH WIND       PRES   REMARKS
DAVENPORT      CLOUDY    78  62  57 E9        29.94F HX  80
IOWA CITY      CLOUDY    78  60  53 SE9       29.92F
MT. PLEASANT * CLOUDY    81  61  50 S7        29.92F HX  81
MUSCATINE *    CLOUDY    79  63  57 SE3       29.92F HX  80
QUAD CITIES    CLOUDY    81  58  45 S7        29.92F HX  81
$$

IAZ062-063-075>077-085>089-095>099-312100-
   SOUTHEAST IOWA

CITY           SKY/WX    TMP DP  RH WIND       PRES   REMARKS
BURLINGTON     PTSUNNY   80  61  52 S9        29.91F HX  81
FAIRFIELD *      N/A    N/A N/A N/A MISG        N/A
FORT MADISON * MOSUNNY   81  61  50 S3        29.92F HX  81
KEOKUK *       PTSUNNY   81  63  54 SW10      29.91F HX  82
OSKALOOSA *    CLOUDY    81  57  44 S17       29.90F HX  81
OTTUMWA        CLOUDY    78  60  53 S14       29.90
WASHINGTON *   CLOUDY    77 -33   1 S9        29.92F
$$

ABBREVIATIONS USED IN REMARKS
   TC - TEMPERATURES IN CELSIUS
  WCI - WIND CHILL INDEX
   HX - HEAT INDEX
  VSB - VISIBILITY
$$





USA.gov is the U.S. government's official web portal to all federal, state and local government web resources and services.